Powrót do katalogu

STARLINK-35941

AktywnyŁącznośćVLEO
NORAD 66583·PAYLOAD·🇺🇸 United States

Wystrzelony Nov 21, 2025 z Cape Canaveral Space Force Station

Loading…

Następne Przeloty (najbliższe 24 godziny)

TLE

ŚwieżeSource: CelesTrak SupGP

Epoka: Sep 15, 2026, 03:04 UTC

1 66583C 25268AC  26258.12826389  .00041113  00000+0  14891-2 0  2585
2 66583  43.0031 356.8868 0001261 266.2967 165.9621 15.27558441    16

Śledź STARLINK-35941 w czasie rzeczywistym z AllMySat

Download on the App Store